TimeMDT,TemperatureF,Dew PointF,Humidity,Sea Level PressureIn,VisibilityMPH,Wind Direction,Wind SpeedMPH,Gust SpeedMPH,PrecipitationIn,Events,Conditions,WindDirDegrees,DateUTC
12:02 AM,44.6,44.6,100,29.84,3.0,NNE,18.4,23.0,0.00,Rain,Light Rain,30,2013-10-04 06:02:00
12:53 AM,44.1,43.0,96,29.81,2.5,NNE,19.6,28.8,0.00,Rain,Light Rain,30,2013-10-04 06:53:00
1:39 AM,42.8,41.0,93,29.83,3.0,NNE,25.3,33.4,0.01,Rain,Light Rain,20,2013-10-04 07:39:00
1:53 AM,42.1,39.9,92,29.81,5.0,NNE,24.2,32.2,0.01,Rain,Light Rain,30,2013-10-04 07:53:00
2:53 AM,39.9,39.0,97,29.80,4.0,NNE,27.6,36.8,0.01,,Overcast,20,2013-10-04 08:53:00
3:53 AM,39.9,39.0,97,29.82,3.0,NNE,19.6,28.8,0.01,Rain,Light Rain,30,2013-10-04 09:53:00
4:26 AM,39.2,37.4,93,29.83,2.5,NNE,20.7,32.2,0.00,Rain,Rain,20,2013-10-04 10:26:00
4:40 AM,39.2,37.4,93,29.83,3.0,NNE,21.9,28.8,0.00,Rain,Light Rain,20,2013-10-04 10:40:00
4:53 AM,39.9,39.0,97,29.85,3.0,North,18.4,25.3,0.00,,Overcast,10,2013-10-04 10:53:00
5:15 AM,39.2,37.4,93,29.85,2.5,North,19.6,26.5,0.01,Rain,Light Rain,10,2013-10-04 11:15:00
5:23 AM,39.2,37.4,93,29.85,3.0,North,20.7,27.6,0.01,,Overcast,10,2013-10-04 11:23:00
5:53 AM,37.9,37.0,97,29.88,2.5,North,21.9,26.5,0.05,Snow,Light Snow,350,2013-10-04 11:53:00
6:25 AM,37.4,35.6,93,29.85,3.0,North,26.5,36.8,0.02,Snow,Light Snow,360,2013-10-04 12:25:00
6:53 AM,36.0,35.1,97,29.85,4.0,North,23.0,32.2,0.04,,Overcast,360,2013-10-04 12:53:00
7:39 AM,35.6,33.8,93,29.84,1.8,North,24.2,36.8,0.02,Rain,Rain,360,2013-10-04 13:39:00
7:53 AM,36.0,34.0,93,29.86,2.5,North,21.9,35.7,0.03,Snow,Light Snow,360,2013-10-04 13:53:00
8:28 AM,35.6,33.8,93,29.86,4.0,North,21.9,33.4,0.00,Snow,Light Snow,360,2013-10-04 14:28:00
8:53 AM,35.1,33.1,92,29.87,3.0,North,25.3,33.4,0.01,Snow,Light Snow,360,2013-10-04 14:53:00
9:02 AM,33.8,33.8,100,29.85,2.5,North,23.0,32.2,0.00,Snow,Light Snow,350,2013-10-04 15:02:00
9:11 AM,33.8,32.0,93,29.85,4.0,North,26.5,36.8,0.00,Snow,Light Snow,360,2013-10-04 15:11:00
9:29 AM,33.8,32.0,93,29.85,2.0,North,24.2,33.4,0.00,Snow,Light Snow,360,2013-10-04 15:29:00
9:38 AM,33.8,32.0,93,29.85,3.0,North,24.2,34.5,0.00,Snow,Light Snow,350,2013-10-04 15:38:00
9:50 AM,33.8,32.0,93,29.86,2.5,NNW,23.0,33.4,0.00,Snow,Light Snow,340,2013-10-04 15:50:00
9:53 AM,34.0,32.0,92,29.88,2.5,NNW,23.0,33.4,0.00,Snow,Light Snow,340,2013-10-04 15:53:00
10:06 AM,33.8,32.0,93,29.87,1.8,NNW,23.0,31.1,0.01,,Overcast,330,2013-10-04 16:06:00
10:22 AM,33.8,30.2,87,29.89,1.0,NNW,25.3,31.1,0.01,Snow,Light Snow,330,2013-10-04 16:22:00
10:28 AM,32.0,30.2,93,29.89,0.8,NNW,21.9,31.1,0.01,Snow-Thunderstorm,Light Thunderstorms and Snow,330,2013-10-04 16:28:00
10:38 AM,32.0,30.2,93,29.88,0.8,NNW,24.2,32.2,0.01,Snow-Thunderstorm,Light Thunderstorms and Snow,340,2013-10-04 16:38:00
10:42 AM,32.0,30.2,93,29.88,0.8,NNW,24.2,32.2,0.01,Snow,Light Snow,330,2013-10-04 16:42:00
10:53 AM,32.0,30.9,96,29.95,1.2,NW,15.0,36.8,0.01,Snow,Light Snow,320,2013-10-04 16:53:00
11:06 AM,32.0,30.2,93,29.90,1.0,NNW,25.3,31.1,0.00,Snow,Light Snow,330,2013-10-04 17:06:00
11:14 AM,33.8,30.2,87,29.90,0.8,NNW,20.7,32.2,0.00,Snow,Light Snow,330,2013-10-04 17:14:00
11:30 AM,32.0,30.2,93,29.90,0.5,NNW,27.6,34.5,0.00,Fog-Snow,Snow,330,2013-10-04 17:30:00
11:53 AM,33.1,30.9,92,29.95,0.5,NW,26.5,34.5,0.00,Fog-Snow,Light Snow,320,2013-10-04 17:53:00
12:53 PM,33.1,30.9,92,29.93,0.2,NNW,31.1,42.6,0.01,Fog-Snow,Snow,340,2013-10-04 18:53:00
1:53 PM,33.1,30.0,89,29.94,1.2,NNW,33.4,44.9,N/A,Snow,Light Snow,340,2013-10-04 19:53:00
2:00 PM,33.8,30.2,87,29.91,0.8,NNW,33.4,43.7,0.00,Snow,Light Snow,340,2013-10-04 20:00:00
2:17 PM,32.0,30.2,93,29.92,0.5,North,27.6,41.4,0.00,Fog-Snow,Snow,350,2013-10-04 20:17:00
2:37 PM,32.0,30.2,93,29.93,0.5,NNW,24.2,38.0,0.00,Fog-Snow,Snow,340,2013-10-04 20:37:00
2:53 PM,32.0,30.0,92,29.99,0.5,NNW,25.3,34.5,0.00,Fog-Snow,Snow,330,2013-10-04 20:53:00
3:09 PM,32.0,30.2,93,29.96,0.5,NNW,20.7,35.7,0.00,Fog-Snow,Snow,330,2013-10-04 21:09:00
3:50 PM,32.0,30.2,93,29.98,0.8,NNW,23.0,32.2,0.03,Snow,Light Snow,330,2013-10-04 21:50:00
3:53 PM,33.1,30.9,92,30.01,0.8,NW,27.6,41.4,0.03,Snow,Light Snow,320,2013-10-04 21:53:00
4:03 PM,33.8,30.2,87,29.98,0.5,NW,19.6,33.4,0.01,Fog-Snow,Snow,320,2013-10-04 22:03:00
4:53 PM,33.1,30.9,92,30.05,0.8,NW,24.2,34.5,0.03,Snow,Light Snow,310,2013-10-04 22:53:00
5:40 PM,33.8,30.2,87,30.03,1.0,NW,26.5,31.1,0.02,Snow,Light Snow,310,2013-10-04 23:40:00
5:44 PM,33.8,30.2,87,30.03,1.2,NW,24.2,34.5,0.02,Snow,Light Snow,310,2013-10-04 23:44:00
5:50 PM,33.8,30.2,87,30.03,1.0,NW,24.2,34.5,0.02,Snow,Light Snow,310,2013-10-04 23:50:00
5:51 PM,32.0,30.0,92,30.08,1.0,NW,24.2,34.5,0.02,Snow,Light Snow,310,2013-10-04 23:51:00
6:18 PM,33.8,30.2,87,30.03,1.5,NW,26.5,33.4,0.01,Snow,Light Snow,310,2013-10-05 00:18:00
6:23 PM,33.8,30.2,87,30.03,2.0,NW,26.5,35.7,0.01,Snow,Light Snow,310,2013-10-05 00:23:00
6:36 PM,33.8,30.2,87,30.04,6.0,NW,25.3,38.0,0.01,,Overcast,310,2013-10-05 00:36:00
6:53 PM,32.0,30.0,92,30.09,4.0,NW,27.6,36.8,0.02,Snow,Light Snow,310,2013-10-05 00:53:00
7:00 PM,32.0,28.4,87,30.04,2.5,NW,29.9,36.8,0.00,Snow,Light Snow,310,2013-10-05 01:00:00
7:26 PM,32.0,30.2,93,30.05,1.8,NW,23.0,38.0,0.01,Snow,Light Snow,310,2013-10-05 01:26:00
7:35 PM,32.0,30.2,93,30.05,1.2,NW,28.8,38.0,0.01,Snow,Light Snow,310,2013-10-05 01:35:00
7:42 PM,32.0,30.2,93,30.05,0.8,NW,26.5,38.0,0.01,Snow,Light Snow,310,2013-10-05 01:42:00
7:53 PM,32.0,30.0,92,30.11,1.2,NW,27.6,38.0,0.01,Snow,Light Snow,310,2013-10-05 01:53:00
7:56 PM,32.0,30.2,93,30.05,2.0,NW,26.5,38.0,0.00,Snow,Light Snow,310,2013-10-05 01:56:00
7:59 PM,32.0,30.2,93,30.05,4.0,NW,27.6,36.8,0.00,Snow,Light Snow,310,2013-10-05 01:59:00
8:24 PM,32.0,30.2,93,30.05,3.0,NW,29.9,38.0,0.00,Snow,Light Snow,310,2013-10-05 02:24:00
8:38 PM,32.0,30.2,93,30.05,2.5,NW,28.8,40.3,0.01,Snow,Light Snow,310,2013-10-05 02:38:00
8:53 PM,32.0,30.0,92,30.10,2.5,NW,29.9,38.0,0.01,Snow,Light Snow,310,2013-10-05 02:53:00
9:01 PM,32.0,30.2,93,30.04,1.8,NW,31.1,42.6,0.00,Snow,Light Snow,310,2013-10-05 03:01:00
9:10 PM,32.0,30.2,93,30.04,1.8,NW,35.7,42.6,0.00,Snow,Light Snow,310,2013-10-05 03:10:00
9:13 PM,32.0,30.2,93,30.04,2.0,NW,33.4,42.6,0.00,Snow,Light Snow,310,2013-10-05 03:13:00
9:23 PM,32.0,28.4,87,30.04,1.8,NW,27.6,43.7,0.00,Snow,Light Snow,310,2013-10-05 03:23:00
9:53 PM,32.0,28.9,88,30.10,2.0,NW,34.5,43.7,0.00,Snow,Light Snow,310,2013-10-05 03:53:00
10:07 PM,32.0,28.4,87,30.03,3.0,NW,27.6,40.3,0.00,Snow,Light Snow,310,2013-10-05 04:07:00
10:53 PM,32.0,28.0,85,30.09,8.0,NW,32.2,42.6,0.00,,Mostly Cloudy,310,2013-10-05 04:53:00
11:53 PM,32.0,28.0,85,30.08,10.0,NW,31.1,44.9,N/A,,Scattered Clouds,310,2013-10-05 05:53:00